Time,TemperatureF,DewpointF,PressureIn,WindDirection,WindDirectionDegrees,WindSpeedMPH,WindSpeedGustMPH,Humidity,HourlyPrecipIn,Conditions,Clouds,dailyrainin,SoftwareType,DateUTC
2013-02-25 00:02:00,21.0,20.0,-100.00,North,10,0.0,2.0,95,-99.99,,,-99.99,,2013-02-25 06:02:00,
2013-02-25 00:11:00,21.0,20.0,-100.00,North,10,0.0,0.0,95,-99.99,,,-99.99,,2013-02-25 06:11:00,
2013-02-25 00:21:00,21.0,20.0,-100.00,North,10,0.0,0.0,96,-99.99,,,-99.99,,2013-02-25 06:21:00,
2013-02-25 00:32:00,21.0,20.0,-100.00,North,10,0.0,0.0,96,-99.99,,,-99.99,,2013-02-25 06:32:00,
2013-02-25 00:42:00,21.0,20.0,-100.00,North,10,0.0,0.0,96,-99.99,,,-99.99,,2013-02-25 06:42:00,
2013-02-25 00:52:00,20.0,20.0,-100.00,North,10,0.0,0.0,96,-99.99,,,-99.99,,2013-02-25 06:52:00,
2013-02-25 01:01:00,20.0,20.0,-100.00,North,10,0.0,0.0,96,-99.99,,,-99.99,,2013-02-25 07:01:00,
2013-02-25 01:11:00,20.0,20.0,-100.00,North,10,1.0,3.0,97,-99.99,,,-99.99,,2013-02-25 07:11:00,
2013-02-25 01:21:00,20.0,19.0,-100.00,North,10,0.0,0.0,97,-99.99,,,-99.99,,2013-02-25 07:21:00,
2013-02-25 01:32:00,20.0,19.0,-100.00,North,10,0.0,0.0,97,-99.99,,,-99.99,,2013-02-25 07:32:00,
2013-02-25 01:41:00,20.0,19.0,-100.00,North,10,0.0,0.0,97,-99.99,,,-99.99,,2013-02-25 07:41:00,
2013-02-25 01:52:00,20.0,19.0,-100.00,North,10,0.0,0.0,97,-99.99,,,-99.99,,2013-02-25 07:52:00,
2013-02-25 02:01:00,20.0,19.0,-100.00,North,10,0.0,0.0,97,-99.99,,,-99.99,,2013-02-25 08:01:00,
2013-02-25 02:11:00,20.0,19.0,-100.00,North,10,1.0,2.0,97,-99.99,,,-99.99,,2013-02-25 08:11:00,
2013-02-25 02:21:00,19.0,19.0,-100.00,North,10,0.0,0.0,98,-99.99,,,-99.99,,2013-02-25 08:21:00,
2013-02-25 02:32:00,19.0,19.0,-100.00,North,10,0.0,0.0,98,-99.99,,,-99.99,,2013-02-25 08:32:00,
2013-02-25 02:41:00,19.0,18.0,-100.00,North,10,0.0,0.0,98,-99.99,,,-99.99,,2013-02-25 08:41:00,
2013-02-25 02:52:00,19.0,19.0,-100.00,North,10,0.0,2.0,98,-99.99,,,-99.99,,2013-02-25 08:52:00,
2013-02-25 03:01:00,19.0,19.0,-100.00,North,10,0.0,2.0,98,-99.99,,,-99.99,,2013-02-25 09:01:00,
2013-02-25 03:12:00,19.0,18.0,-100.00,North,10,0.0,1.0,98,-99.99,,,-99.99,,2013-02-25 09:12:00,
2013-02-25 03:21:00,19.0,18.0,-100.00,North,10,1.0,4.0,98,-99.99,,,-99.99,,2013-02-25 09:21:00,
2013-02-25 03:32:00,19.0,18.0,-100.00,North,10,1.0,4.0,98,-99.99,,,-99.99,,2013-02-25 09:32:00,
2013-02-25 03:42:00,18.0,18.0,-100.00,North,10,0.0,0.0,98,-99.99,,,-99.99,,2013-02-25 09:42:00,
2013-02-25 03:52:00,18.0,18.0,-100.00,North,10,0.0,0.0,98,-99.99,,,-99.99,,2013-02-25 09:52:00,
2013-02-25 04:01:00,18.0,18.0,-100.00,North,10,0.0,0.0,98,-99.99,,,-99.99,,2013-02-25 10:01:00,
2013-02-25 04:11:00,18.0,18.0,-100.00,North,10,0.0,0.0,98,-99.99,,,-99.99,,2013-02-25 10:11:00,
2013-02-25 04:21:00,18.0,18.0,-100.00,North,10,0.0,0.0,99,-99.99,,,-99.99,,2013-02-25 10:21:00,
2013-02-25 04:32:00,18.0,18.0,-100.00,North,10,0.0,0.0,99,-99.99,,,-99.99,,2013-02-25 10:32:00,
2013-02-25 04:42:00,18.0,18.0,-100.00,North,10,0.0,0.0,99,-99.99,,,-99.99,,2013-02-25 10:42:00,
2013-02-25 04:52:00,19.0,19.0,-100.00,North,10,0.0,1.0,99,-99.99,,,-99.99,,2013-02-25 10:52:00,
2013-02-25 05:01:00,19.0,19.0,-100.00,North,10,0.0,1.0,99,-99.99,,,-99.99,,2013-02-25 11:01:00,
2013-02-25 05:11:00,19.0,19.0,-100.00,North,10,0.0,0.0,99,-99.99,,,-99.99,,2013-02-25 11:11:00,
2013-02-25 05:21:00,19.0,18.0,-100.00,North,10,0.0,2.0,99,-99.99,,,-99.99,,2013-02-25 11:21:00,
2013-02-25 05:32:00,19.0,18.0,-100.00,North,10,0.0,2.0,99,-99.99,,,-99.99,,2013-02-25 11:32:00,
2013-02-25 05:42:00,19.0,19.0,-100.00,North,10,2.0,3.0,99,-99.99,,,-99.99,,2013-02-25 11:42:00,
2013-02-25 05:52:00,19.0,19.0,-100.00,North,10,0.0,1.0,99,-99.99,,,-99.99,,2013-02-25 11:52:00,
2013-02-25 06:02:00,19.0,19.0,-100.00,North,10,0.0,1.0,99,-99.99,,,-99.99,,2013-02-25 12:02:00,
2013-02-25 06:11:00,19.0,19.0,-100.00,North,10,1.0,2.0,99,-99.99,,,-99.99,,2013-02-25 12:11:00,
2013-02-25 06:21:00,19.0,19.0,-100.00,North,10,0.0,0.0,99,-99.99,,,-99.99,,2013-02-25 12:21:00,
2013-02-25 06:32:00,19.0,19.0,-100.00,North,10,0.0,0.0,99,-99.99,,,-99.99,,2013-02-25 12:32:00,
2013-02-25 06:42:00,19.0,19.0,-100.00,North,10,1.0,1.0,99,-99.99,,,-99.99,,2013-02-25 12:42:00,
2013-02-25 06:55:00,18.0,18.0,-100.00,North,10,0.0,3.0,99,-99.99,,,-99.99,,2013-02-25 12:55:00,
2013-02-25 07:02:00,18.0,18.0,-100.00,North,10,0.0,3.0,99,-99.99,,,-99.99,,2013-02-25 13:02:00,
2013-02-25 07:12:00,18.0,18.0,-100.00,North,10,0.0,1.0,99,-99.99,,,-99.99,,2013-02-25 13:12:00,
2013-02-25 07:22:00,19.0,18.0,-100.00,North,10,2.0,4.0,99,-99.99,,,-99.99,,2013-02-25 13:22:00,
2013-02-25 07:32:00,19.0,18.0,-100.00,North,10,2.0,4.0,99,-99.99,,,-99.99,,2013-02-25 13:32:00,
2013-02-25 07:42:00,18.0,18.0,-100.00,North,10,0.0,1.0,99,-99.99,,,-99.99,,2013-02-25 13:42:00,
2013-02-25 07:52:00,19.0,19.0,-100.00,North,10,0.0,1.0,99,-99.99,,,-99.99,,2013-02-25 13:52:00,
2013-02-25 08:03:00,19.0,19.0,-100.00,North,10,0.0,1.0,99,-99.99,,,-99.99,,2013-02-25 14:03:00,
2013-02-25 08:17:00,21.0,21.0,-100.00,North,10,1.0,3.0,99,-99.99,,,-99.99,,2013-02-25 14:17:00,
2013-02-25 08:32:00,22.0,22.0,-100.00,North,5,1.0,3.0,99,-99.99,,,-99.99,,2013-02-25 14:32:00,
2013-02-25 08:42:00,25.0,25.0,-100.00,North,5,0.0,0.0,98,-99.99,,,-99.99,,2013-02-25 14:42:00,
2013-02-25 08:52:00,27.0,26.0,-100.00,North,5,0.0,0.0,95,-99.99,,,-99.99,,2013-02-25 14:52:00,
2013-02-25 09:02:00,27.0,26.0,-100.00,North,5,0.0,0.0,95,-99.99,,,-99.99,,2013-02-25 15:02:00,
2013-02-25 09:11:00,29.0,27.0,-100.00,North,5,0.0,0.0,90,-99.99,,,-99.99,,2013-02-25 15:11:00,
2013-02-25 09:22:00,30.0,25.0,-100.00,North,5,4.0,6.0,81,-99.99,,,-99.99,,2013-02-25 15:22:00,
2013-02-25 09:32:00,30.0,25.0,-100.00,North,5,4.0,6.0,81,-99.99,,,-99.99,,2013-02-25 15:32:00,
2013-02-25 09:41:00,32.0,25.0,-100.00,North,5,1.0,2.0,76,-99.99,,,-99.99,,2013-02-25 15:41:00,
2013-02-25 09:52:00,33.0,25.0,-100.00,North,5,1.0,6.0,70,-99.99,,,-99.99,,2013-02-25 15:52:00,
2013-02-25 10:02:00,33.0,25.0,-100.00,North,5,1.0,6.0,70,-99.99,,,-99.99,,2013-02-25 16:02:00,
2013-02-25 10:12:00,34.0,24.0,-100.00,North,5,0.0,5.0,67,-99.99,,,-99.99,,2013-02-25 16:12:00,
2013-02-25 10:21:00,36.0,25.0,-100.00,North,5,1.0,4.0,64,-99.99,,,-99.99,,2013-02-25 16:21:00,
2013-02-25 10:32:00,36.0,25.0,-100.00,North,5,1.0,4.0,64,-99.99,,,-99.99,,2013-02-25 16:32:00,
2013-02-25 10:42:00,36.0,24.0,-100.00,North,5,4.0,6.0,62,-99.99,,,-99.99,,2013-02-25 16:42:00,
2013-02-25 10:52:00,37.0,25.0,-100.00,North,5,2.0,5.0,63,-99.99,,,-99.99,,2013-02-25 16:52:00,
2013-02-25 11:01:00,37.0,25.0,-100.00,North,5,2.0,5.0,63,-99.99,,,-99.99,,2013-02-25 17:01:00,
2013-02-25 11:11:00,37.0,26.0,-100.00,North,5,4.0,8.0,63,-99.99,,,-99.99,,2013-02-25 17:11:00,
2013-02-25 11:21:00,38.0,27.0,-100.00,North,5,4.0,10.0,63,-99.99,,,-99.99,,2013-02-25 17:21:00,
2013-02-25 11:32:00,38.0,27.0,-100.00,North,5,4.0,10.0,63,-99.99,,,-99.99,,2013-02-25 17:32:00,
2013-02-25 11:42:00,39.0,27.0,-100.00,North,5,4.0,9.0,61,-99.99,,,-99.99,,2013-02-25 17:42:00,
2013-02-25 11:52:00,38.0,26.0,-100.00,North,5,4.0,9.0,62,-99.99,,,-99.99,,2013-02-25 17:52:00,
2013-02-25 12:01:00,38.0,26.0,-100.00,North,5,4.0,9.0,62,-99.99,,,-99.99,,2013-02-25 18:01:00,
2013-02-25 12:12:00,39.0,27.0,-100.00,North,5,4.0,8.0,62,-99.99,,,-99.99,,2013-02-25 18:12:00,
2013-02-25 12:21:00,39.0,27.0,-100.00,North,5,8.0,12.0,62,-99.99,,,-99.99,,2013-02-25 18:21:00,
2013-02-25 12:32:00,39.0,27.0,-100.00,North,5,8.0,12.0,62,-99.99,,,-99.99,,2013-02-25 18:32:00,
2013-02-25 12:42:00,38.0,27.0,-100.00,North,5,6.0,13.0,64,-99.99,,,-99.99,,2013-02-25 18:42:00,
2013-02-25 12:52:00,39.0,28.0,-100.00,North,5,3.0,11.0,64,-99.99,,,-99.99,,2013-02-25 18:52:00,
2013-02-25 13:01:00,39.0,28.0,-100.00,North,5,3.0,11.0,64,-99.99,,,-99.99,,2013-02-25 19:01:00,
2013-02-25 13:11:00,39.0,27.0,-100.00,North,5,5.0,11.0,63,-99.99,,,-99.99,,2013-02-25 19:11:00,
2013-02-25 13:21:00,40.0,28.0,-100.00,North,5,5.0,9.0,63,-99.99,,,-99.99,,2013-02-25 19:21:00,
2013-02-25 13:32:00,40.0,28.0,-100.00,North,5,5.0,9.0,63,-99.99,,,-99.99,,2013-02-25 19:32:00,
2013-02-25 13:42:00,40.0,28.0,-100.00,North,5,6.0,11.0,63,-99.99,,,-99.99,,2013-02-25 19:42:00,
2013-02-25 13:52:00,39.0,28.0,-100.00,North,5,7.0,11.0,63,-99.99,,,-99.99,,2013-02-25 19:52:00,
2013-02-25 14:01:00,39.0,28.0,-100.00,North,5,7.0,11.0,63,-99.99,,,-99.99,,2013-02-25 20:01:00,
2013-02-25 14:11:00,39.0,28.0,-100.00,North,5,5.0,12.0,63,-99.99,,,-99.99,,2013-02-25 20:11:00,
2013-02-25 14:21:00,40.0,29.0,-100.00,North,5,4.0,9.0,63,-99.99,,,-99.99,,2013-02-25 20:21:00,
2013-02-25 14:32:00,40.0,29.0,-100.00,North,5,4.0,9.0,63,-99.99,,,-99.99,,2013-02-25 20:32:00,
2013-02-25 14:42:00,40.0,29.0,-100.00,North,5,3.0,11.0,63,-99.99,,,-99.99,,2013-02-25 20:42:00,
2013-02-25 14:52:00,40.0,28.0,-100.00,North,5,1.0,8.0,62,-99.99,,,-99.99,,2013-02-25 20:52:00,
2013-02-25 15:01:00,40.0,28.0,-100.00,North,5,1.0,8.0,62,-99.99,,,-99.99,,2013-02-25 21:01:00,
2013-02-25 15:11:00,40.0,28.0,-100.00,North,5,4.0,8.0,61,-99.99,,,-99.99,,2013-02-25 21:11:00,
2013-02-25 15:21:00,40.0,28.0,-100.00,North,5,4.0,9.0,61,-99.99,,,-99.99,,2013-02-25 21:21:00,
2013-02-25 15:32:00,40.0,28.0,-100.00,North,5,4.0,9.0,61,-99.99,,,-99.99,,2013-02-25 21:32:00,
2013-02-25 15:42:00,40.0,28.0,-100.00,North,5,5.0,7.0,62,-99.99,,,-99.99,,2013-02-25 21:42:00,
2013-02-25 15:52:00,40.0,29.0,-100.00,North,5,4.0,8.0,63,-99.99,,,-99.99,,2013-02-25 21:52:00,
2013-02-25 16:01:00,40.0,29.0,-100.00,North,5,4.0,8.0,63,-99.99,,,-99.99,,2013-02-25 22:01:00,
2013-02-25 16:11:00,40.0,28.0,-100.00,North,5,4.0,9.0,62,-99.99,,,-99.99,,2013-02-25 22:11:00,
2013-02-25 16:21:00,40.0,28.0,-100.00,North,5,4.0,7.0,63,-99.99,,,-99.99,,2013-02-25 22:21:00,
2013-02-25 16:32:00,40.0,28.0,-100.00,North,5,4.0,7.0,63,-99.99,,,-99.99,,2013-02-25 22:32:00,
2013-02-25 16:42:00,39.0,28.0,-100.00,North,5,2.0,6.0,64,-99.99,,,-99.99,,2013-02-25 22:42:00,
2013-02-25 16:52:00,39.0,28.0,-100.00,North,5,3.0,6.0,64,-99.99,,,-99.99,,2013-02-25 22:52:00,
2013-02-25 17:01:00,39.0,28.0,-100.00,North,5,3.0,6.0,64,-99.99,,,-99.99,,2013-02-25 23:01:00,
2013-02-25 17:11:00,38.0,28.0,-100.00,North,5,2.0,6.0,66,-99.99,,,-99.99,,2013-02-25 23:11:00,
2013-02-25 17:22:00,38.0,28.0,-100.00,North,5,1.0,5.0,67,-99.99,,,-99.99,,2013-02-25 23:22:00,
2013-02-25 17:32:00,38.0,28.0,-100.00,North,5,1.0,5.0,67,-99.99,,,-99.99,,2013-02-25 23:32:00,
2013-02-25 17:42:00,37.0,28.0,-100.00,North,5,0.0,5.0,68,-99.99,,,-99.99,,2013-02-25 23:42:00,
2013-02-25 17:52:00,37.0,28.0,-100.00,North,5,0.0,4.0,70,-99.99,,,-99.99,,2013-02-25 23:52:00,
2013-02-25 18:01:00,37.0,28.0,-100.00,North,5,0.0,4.0,70,-99.99,,,-99.99,,2013-02-26 00:01:00,
2013-02-25 18:12:00,36.0,28.0,-100.00,North,5,0.0,5.0,72,-99.99,,,-99.99,,2013-02-26 00:12:00,
2013-02-25 18:22:00,36.0,28.0,-100.00,North,5,0.0,4.0,73,-99.99,,,-99.99,,2013-02-26 00:22:00,
2013-02-25 18:32:00,36.0,28.0,-100.00,North,5,0.0,4.0,73,-99.99,,,-99.99,,2013-02-26 00:32:00,
2013-02-25 18:42:00,35.0,28.0,-100.00,North,5,1.0,3.0,75,-99.99,,,-99.99,,2013-02-26 00:42:00,
2013-02-25 18:52:00,35.0,29.0,-100.00,North,5,0.0,4.0,77,-99.99,,,-99.99,,2013-02-26 00:52:00,
2013-02-25 19:02:00,35.0,29.0,-100.00,North,5,0.0,4.0,77,-99.99,,,-99.99,,2013-02-26 01:02:00,
2013-02-25 19:11:00,35.0,29.0,-100.00,North,5,0.0,4.0,79,-99.99,,,-99.99,,2013-02-26 01:11:00,
2013-02-25 19:21:00,35.0,30.0,-100.00,North,5,1.0,4.0,81,-99.99,,,-99.99,,2013-02-26 01:21:00,
2013-02-25 19:32:00,35.0,30.0,-100.00,North,5,1.0,4.0,81,-99.99,,,-99.99,,2013-02-26 01:32:00,
2013-02-25 19:42:00,35.0,29.0,-100.00,North,5,0.0,4.0,81,-99.99,,,-99.99,,2013-02-26 01:42:00,
2013-02-25 19:52:00,35.0,29.0,-100.00,North,5,0.0,3.0,81,-99.99,,,-99.99,,2013-02-26 01:52:00,
2013-02-25 20:01:00,35.0,29.0,-100.00,North,5,0.0,3.0,81,-99.99,,,-99.99,,2013-02-26 02:01:00,
2013-02-25 20:11:00,34.0,29.0,-100.00,North,5,0.0,2.0,81,-99.99,,,-99.99,,2013-02-26 02:11:00,
2013-02-25 20:21:00,34.0,29.0,-100.00,North,5,1.0,4.0,81,-99.99,,,-99.99,,2013-02-26 02:21:00,
2013-02-25 20:32:00,34.0,29.0,-100.00,North,5,1.0,4.0,81,-99.99,,,-99.99,,2013-02-26 02:32:00,
2013-02-25 20:42:00,34.0,29.0,-100.00,North,5,0.0,4.0,82,-99.99,,,-99.99,,2013-02-26 02:42:00,
2013-02-25 20:52:00,34.0,29.0,-100.00,North,5,0.0,2.0,82,-99.99,,,-99.99,,2013-02-26 02:52:00,
2013-02-25 21:02:00,34.0,29.0,-100.00,North,5,0.0,2.0,82,-99.99,,,-99.99,,2013-02-26 03:02:00,
2013-02-25 21:11:00,35.0,29.0,-100.00,North,5,0.0,1.0,81,-99.99,,,-99.99,,2013-02-26 03:11:00,
2013-02-25 21:21:00,34.0,29.0,-100.00,North,5,0.0,1.0,81,-99.99,,,-99.99,,2013-02-26 03:21:00,
2013-02-25 21:32:00,34.0,29.0,-100.00,North,5,0.0,1.0,81,-99.99,,,-99.99,,2013-02-26 03:32:00,
2013-02-25 21:42:00,34.0,29.0,-100.00,North,10,0.0,2.0,82,-99.99,,,-99.99,,2013-02-26 03:42:00,
2013-02-25 21:52:00,34.0,30.0,-100.00,North,5,2.0,5.0,83,-99.99,,,-99.99,,2013-02-26 03:52:00,
2013-02-25 22:01:00,34.0,30.0,-100.00,North,5,2.0,5.0,83,-99.99,,,-99.99,,2013-02-26 04:01:00,
2013-02-25 22:11:00,35.0,30.0,-100.00,North,5,1.0,5.0,83,-99.99,,,-99.99,,2013-02-26 04:11:00,
2013-02-25 22:22:00,35.0,30.0,-100.00,North,5,0.0,4.0,82,-99.99,,,-99.99,,2013-02-26 04:22:00,
2013-02-25 22:32:00,35.0,30.0,-100.00,North,5,0.0,4.0,82,-99.99,,,-99.99,,2013-02-26 04:32:00,
2013-02-25 22:42:00,35.0,30.0,-100.00,North,5,1.0,3.0,82,-99.99,,,-99.99,,2013-02-26 04:42:00,
2013-02-25 22:52:00,34.0,30.0,-100.00,North,5,2.0,5.0,83,-99.99,,,-99.99,,2013-02-26 04:52:00,
2013-02-25 23:01:00,34.0,30.0,-100.00,North,5,2.0,5.0,83,-99.99,,,-99.99,,2013-02-26 05:01:00,
2013-02-25 23:12:00,35.0,30.0,-100.00,North,5,1.0,8.0,83,-99.99,,,-99.99,,2013-02-26 05:12:00,
2013-02-25 23:22:00,35.0,30.0,-100.00,North,5,5.0,11.0,80,-99.99,,,-99.99,,2013-02-26 05:22:00,
2013-02-25 23:32:00,35.0,30.0,-100.00,North,5,5.0,11.0,80,-99.99,,,-99.99,,2013-02-26 05:32:00,
2013-02-25 23:43:00,35.0,29.0,-100.00,North,5,6.0,11.0,78,-99.99,,,-99.99,,2013-02-26 05:43:00,
2013-02-25 23:52:00,35.0,29.0,-100.00,North,5,6.0,15.0,77,-99.99,,,-99.99,,2013-02-26 05:52:00,